CW8468 Weather Reports


Display with metric or nautical units.
time (UTC)temp
F
wind
direction
speed
MPH
gust
MPH
rain 1hr
in
rain 24hr
in
rain mn
in
humidity
%
barometer
mb
20260831172001 92 98 3.0 9.0 0.00 0.01 0.00 56 1015.8
20260831171516 94 151 2.0 9.0 0.00 0.01 0.00 55 1015.8
20260831171002 92 32 1.0 3.0 0.00 0.01 0.00 59 1015.8
20260831170500 91 64 1.0 3.0 0.00 0.01 0.00 59 1015.8
20260831170027 90 110 2.0 4.0 0.00 0.01 0.00 58 1015.9
20260831165501 90 348 2.0 6.0 0.00 0.01 0.00 59 1015.9
20260831165002 91 152 2.0 6.0 0.00 0.01 0.00 58 1016.0
20260831164515 91 245 2.0 6.0 0.00 0.01 0.00 59 1015.9
20260831164002 90 185 2.0 4.0 0.00 0.01 0.00 59 1016.0
20260831163501 90 260 2.0 4.0 0.00 0.01 0.00 59 1016.0
20260831163027 90 164 2.0 5.0 0.00 0.01 0.00 58 1016.0
20260831162500 90 127 1.0 5.0 0.00 0.01 0.00 61 1016.0
20260831162002 89 149 2.0 6.0 0.00 0.01 0.00 60 1016.0
20260831161516 89 358 2.0 6.0 0.00 0.01 0.00 61 1016.1
20260831160500 89 25 2.0 6.0 0.00 0.01 0.00 61 1016.1
20260831155500 88 112 1.0 4.0 0.00 0.01 0.00 65 1016.1
20260831155002 88 198 2.0 4.0 0.00 0.01 0.00 62 1016.2
20260831154515 88 353 1.0 4.0 0.00 0.01 0.00 65 1016.2
20260831154001 87 246 1.0 3.0 0.00 0.01 0.00 61 1016.1
20260831153025 88 70 2.0 4.0 0.00 0.01 0.00 65 1016.1
20260831152500 87 62 1.0 3.0 0.00 0.01 0.00 63 1016.1
20260831151515 87 353 1.0 4.0 0.00 0.01 0.00 68 1016.1
20260831151000 86 343 2.0 5.0 0.00 0.01 0.00 68 1016.0
20260831150500 86 263 2.0 5.0 0.00 0.01 0.00 70 1016.0
20260831150024 85 297 1.0 4.0 0.00 0.01 0.00 72 1016.0
20260831145500 85 211 1.0 3.0 0.00 0.01 0.00 73 1015.9
20260831145002 85 231 1.0 3.0 0.00 0.01 0.00 73 1015.9
20260831144515 85 222 2.0 4.0 0.00 0.01 0.00 74 1015.9
20260831144000 85 308 2.0 4.0 0.00 0.01 0.00 74 1015.9
20260831143501 84 343 1.0 4.0 0.00 0.01 0.00 75 1015.9
20260831143024 84 284 1.0 3.0 0.00 0.01 0.00 77 1015.8
20260831142500 84 197 1.0 2.0 0.00 0.01 0.00 77 1015.8
20260831142001 83 258 1.0 2.0 0.00 0.01 0.00 78 1015.8
20260831141516 83 312 1.0 3.0 0.00 0.01 0.00 80 1015.8
20260831140500 82 83 0.0 2.0 0.00 0.01 0.00 82 1015.7
20260831140024 82 262 1.0 2.0 0.00 0.01 0.00 82 1015.6
20260831135459 82 222 1.0 2.0 0.00 0.01 0.00 83 1015.6
20260831134959 81 222 0.0 2.0 0.00 0.01 0.00 83 1015.6
20260831134514 81 35 0.0 1.0 0.00 0.01 0.00 84 1015.5
20260831133458 80 35 1.0 2.0 0.00 0.01 0.00 86 1015.4
20260831133026 80 270 0.0 2.0 0.00 0.01 0.00 86 1015.4
20260831132459 80 195 0.0 1.0 0.00 0.01 0.00 88 1015.4
20260831132000 79 195 0.0 2.0 0.00 0.01 0.00 89 1015.4
20260831131515 79 195 1.0 2.0 0.00 0.01 0.00 89 1015.3
20260831130459 78 195 0.0 1.0 0.00 0.01 0.00 90 1015.3
20260831125000 77 195 0.0 1.0 0.00 0.01 0.00 90 1015.2
20260831124515 77 195 0.0 1.0 0.00 0.01 0.00 90 1015.2
20260831124002 76 195 0.0 1.0 0.00 0.01 0.00 90 1015.0
20260831123501 76 195 0.0 1.0 0.00 0.01 0.00 90 1015.0
20260831123023 76 195 0.0 0.0 0.00 0.01 0.00 90 1014.9
20260831121002 76 195 0.0 0.0 0.00 0.01 0.00 90 1014.6
20260831120501 75 195 0.0 0.0 0.00 0.01 0.00 89 1014.4
20260831120023 76 195 0.0 0.0 0.00 0.01 0.00 89 1014.4
20260831115500 76 195 0.0 0.0 0.00 0.01 0.00 89 1014.3
20260831115001 76 195 0.0 0.0 0.00 0.01 0.00 89 1014.3
20260831114514 76 195 0.0 0.0 0.00 0.01 0.00 89 1014.3
20260831113459 76 195 0.0 0.0 0.00 0.01 0.00 89 1014.3
20260831113021 76 195 0.0 0.0 0.00 0.01 0.00 89 1014.3
20260831112459 76 195 0.0 0.0 0.00 0.01 0.00 89 1014.3
20260831112000 76 195 0.0 0.0 0.00 0.01 0.00 89 1014.3
20260831111514 76 195 0.0 0.0 0.00 0.01 0.00 89 1014.3
20260831111000 76 195 0.0 0.0 0.00 0.01 0.00 89 1014.3
20260831110500 76 195 0.0 0.0 0.00 0.01 0.00 89 1014.3
20260831105458 76 195 0.0 0.0 0.00 0.01 0.00 89 1014.2
20260831104959 77 195 0.0 0.0 0.00 0.01 0.00 89 1014.3
20260831104513 76 195 0.0 0.0 0.00 0.01 0.00 89 1014.4
20260831104000 76 195 0.0 0.0 0.00 0.01 0.00 88 1014.3
20260831103458 76 195 0.0 0.0 0.00 0.01 0.00 88 1014.3
20260831103023 77 195 0.0 0.0 0.00 0.01 0.00 88 1014.3
20260831102458 78 195 0.0 0.0 0.00 0.01 0.00 88 1014.3
20260831102000 78 195 0.0 0.0 0.00 0.01 0.00 88 1014.3
20260831101513 78 195 0.0 0.0 0.00 0.01 0.00 89 1014.3
20260831101000 77 195 0.0 0.0 0.00 0.01 0.00 88 1014.5
20260831100458 77 195 0.0 0.0 0.00 0.01 0.00 88 1014.5
20260831100025 77 195 0.0 0.0 0.00 0.01 0.00 87 1014.5
20260831095459 77 195 0.0 0.0 0.00 0.01 0.00 87 1014.4
20260831095001 77 195 0.0 0.0 0.00 0.01 0.00 87 1014.5
20260831094514 77 195 0.0 0.0 0.00 0.01 0.00 87 1014.3
20260831094001 77 195 0.0 0.0 0.00 0.01 0.00 87 1014.4
20260831093459 77 195 0.0 0.0 0.00 0.01 0.00 87 1014.3
20260831093025 77 195 0.0 1.0 0.00 0.01 0.00 87 1014.2
20260831092459 78 195 0.0 1.0 0.00 0.01 0.00 87 1014.2
20260831092001 78 195 0.0 0.0 0.00 0.01 0.00 87 1014.2
20260831091514 78 195 0.0 0.0 0.00 0.01 0.00 87 1014.2
20260831091001 78 195 0.0 0.0 0.00 0.01 0.00 87 1014.2
20260831090459 78 195 0.0 0.0 0.00 0.01 0.00 87 1014.2
20260831090023 78 195 0.0 1.0 0.00 0.01 0.00 86 1014.3
20260831085459 78 195 0.0 1.0 0.00 0.01 0.00 86 1014.4
20260831084959 78 195 0.0 1.0 0.00 0.01 0.00 86 1014.4
20260831084513 78 195 0.0 1.0 0.00 0.01 0.00 86 1014.4
20260831083959 78 195 0.0 0.0 0.00 0.01 0.00 86 1014.4
20260831083458 78 195 0.0 0.0 0.00 0.01 0.00 86 1014.3
20260831083018 78 195 0.0 0.0 0.00 0.01 0.00 85 1014.4
20260831082458 78 195 0.0 0.0 0.00 0.01 0.00 85 1014.3
20260831081959 78 195 0.0 1.0 0.00 0.01 0.00 85 1014.4
20260831081514 78 195 0.0 1.0 0.00 0.01 0.00 85 1014.3
20260831080458 79 195 0.0 1.0 0.00 0.01 0.00 84 1014.4
20260831080022 79 195 0.0 1.0 0.00 0.01 0.00 84 1014.4
20260831075458 79 195 0.0 1.0 0.00 0.01 0.00 84 1014.4
20260831074959 79 195 0.0 1.0 0.00 0.01 0.00 84 1014.4
20260831074513 79 195 0.0 2.0 0.00 0.01 0.00 84 1014.5
20260831074000 79 195 0.0 0.0 0.00 0.01 0.00 83 1014.5
20260831073022 80 195 0.0 2.0 0.00 0.01 0.00 83 1014.4
20260831072458 80 195 0.0 2.0 0.00 0.01 0.00 83 1014.5
20260831071959 80 178 0.0 2.0 0.00 0.01 0.00 83 1014.5
20260831071513 80 194 0.0 2.0 0.00 0.01 0.00 82 1014.5
20260831070959 80 213 0.0 2.0 0.00 0.01 0.00 82 1014.5
20260831070457 80 208 0.0 1.0 0.00 0.01 0.00 82 1014.5
20260831070024 80 208 0.0 1.0 0.00 0.01 0.00 82 1014.5
20260831065458 80 208 0.0 1.0 0.00 0.01 0.00 82 1014.5
20260831064513 80 208 0.0 2.0 0.00 0.01 0.00 81 1014.6
20260831063959 80 189 0.0 2.0 0.00 0.01 0.00 81 1014.6
20260831063458 80 189 0.0 2.0 0.00 0.01 0.00 81 1014.7
20260831063024 80 199 0.0 2.0 0.00 0.01 0.00 81 1014.7
20260831062458 80 199 0.0 2.0 0.00 0.01 0.00 81 1014.7
20260831062000 81 175 0.0 2.0 0.00 0.01 0.00 80 1014.7
20260831060959 81 200 0.0 2.0 0.00 0.01 0.00 80 1014.7
20260831060458 81 183 0.0 2.0 0.00 0.01 0.00 80 1014.7
20260831060027 81 183 0.0 2.0 0.00 0.01 0.00 79 1014.8
20260831055503 81 205 0.0 2.0 0.00 0.01 0.00 79 1014.8
20260831055004 81 205 1.0 3.0 0.00 0.01 0.00 79 1014.8
20260831054519 81 100 0.0 3.0 0.00 0.01 0.00 79 1014.8
20260831054005 81 204 0.0 1.0 0.00 0.01 0.00 79 1014.7
20260831053503 81 204 0.0 2.0 0.00 0.01 0.00 78 1014.7
20260831053026 82 204 0.0 2.0 0.00 0.01 0.00 78 1014.7
20260831052503 82 193 0.0 2.0 0.00 0.01 0.00 78 1014.7
20260831052004 82 194 1.0 2.0 0.00 0.01 0.00 77 1014.6
20260831051519 82 218 1.0 3.0 0.00 0.01 0.00 77 1014.6
20260831051004 82 177 1.0 3.0 0.00 0.01 0.00 77 1014.6
20260831050503 82 152 1.0 3.0 0.00 0.01 0.00 77 1014.5
20260831050028 82 353 1.0 3.0 0.00 0.01 0.01 76 1014.5
20260831045004 82 165 1.0 2.0 0.00 0.01 0.01 76 1014.5
20260831044004 83 173 1.0 3.0 0.00 0.01 0.01 75 1014.4
20260831043503 83 166 1.0 4.0 0.00 0.01 0.01 75 1014.4
20260831043026 83 231 2.0 4.0 0.00 0.01 0.01 74 1014.5
20260831042503 83 157 1.0 6.0 0.00 0.01 0.01 74 1014.4
20260831042004 83 191 1.0 6.0 0.00 0.01 0.01 74 1014.4
20260831041518 83 182 1.0 5.0 0.00 0.01 0.01 74 1014.3
20260831041005 83 141 1.0 3.0 0.00 0.01 0.01 73 1014.3
20260831040503 83 187 1.0 3.0 0.00 0.01 0.01 73 1014.3
20260831040022 83 353 1.0 3.0 0.00 0.01 0.01 73 1014.2
20260831035502 83 162 0.0 3.0 0.00 0.01 0.01 73 1014.2
20260831035003 83 200 0.0 3.0 0.00 0.01 0.01 73 1014.2
20260831034517 83 174 0.0 2.0 0.00 0.01 0.01 72 1014.1
20260831034003 83 174 0.0 2.0 0.00 0.01 0.01 72 1014.0
20260831033502 83 172 0.0 2.0 0.00 0.01 0.01 72 1014.0
20260831033024 84 148 0.0 2.0 0.00 0.01 0.01 72 1014.0
20260831032502 84 165 0.0 2.0 0.00 0.01 0.01 71 1014.0
20260831032002 84 150 1.0 3.0 0.00 0.01 0.01 71 1013.9
20260831031517 84 135 1.0 3.0 0.00 0.01 0.01 71 1013.9
20260831031003 84 134 1.0 3.0 0.00 0.01 0.01 71 1013.9
20260831025504 85 146 1.0 3.0 0.00 0.01 0.01 69 1013.6
20260831025002 85 158 1.0 3.0 0.00 0.01 0.01 69 1013.5
20260831024003 85 154 2.0 6.0 0.00 0.01 0.01 68 1013.4
20260831023502 86 353 2.0 6.0 0.00 0.01 0.01 68 1013.3
20260831023023 86 195 2.0 5.0 0.00 0.01 0.01 67 1013.2
20260831022501 86 166 2.0 6.0 0.00 0.01 0.01 67 1013.2
20260831021517 86 119 2.0 5.0 0.00 0.01 0.01 66 1013.1
20260831021003 86 137 2.0 4.0 0.00 0.01 0.01 66 1013.0
20260831020502 86 125 2.0 5.0 0.00 0.01 0.01 66 1012.8
20260831020025 87 172 2.0 6.0 0.00 0.01 0.01 66 1012.8
20260831015502 87 153 2.0 6.0 0.00 0.01 0.01 65 1012.7
20260831015004 87 177 2.0 5.0 0.00 0.01 0.01 65 1012.6
20260831014518 87 153 2.0 6.0 0.00 0.01 0.01 65 1012.7
20260831014003 87 154 2.0 8.0 0.00 0.01 0.01 65 1012.6
20260831013502 87 123 3.0 8.0 0.00 0.01 0.01 64 1012.7
20260831013025 87 353 3.0 7.0 0.00 0.01 0.01 64 1012.7
20260831012502 87 353 2.0 6.0 0.00 0.01 0.01 64 1012.7
20260831012003 87 135 2.0 5.0 0.00 0.01 0.01 65 1012.6
20260831011516 87 141 1.0 4.0 0.00 0.01 0.01 64 1012.5
20260831011003 87 191 2.0 6.0 0.00 0.01 0.01 64 1012.5
20260831010503 87 150 2.0 6.0 0.01 0.01 0.01 64 1012.5
20260831010025 87 86 2.0 4.0 0.01 0.01 0.01 64 1012.5
20260831005501 87 133 2.0 7.0 0.01 0.01 0.01 64 1012.5
20260831005002 87 151 2.0 7.0 0.01 0.01 0.01 65 1012.6
20260831004516 86 121 2.0 6.0 0.01 0.01 0.01 66 1012.5
20260831004002 86 353 2.0 6.0 0.01 0.01 0.01 67 1012.5
20260831003501 85 159 1.0 6.0 0.01 0.01 0.01 69 1012.4
20260831002501 84 143 1.0 2.0 0.01 0.01 0.01 74 1012.3
20260831002002 85 127 1.0 3.0 0.01 0.01 0.01 71 1012.3
20260831001516 87 2 3.0 8.0 0.01 0.01 0.01 67 1012.3
20260831001001 89 134 4.0 14.0 0.01 0.01 0.01 62 1012.3
20260831000501 94 89 4.0 14.0 0.00 0.00 0.00 52 1012.3
20260831000025 94 171 2.0 6.0 0.00 0.00 0.00 49 1012.1
20260830235002 95 182 2.0 9.0 0.00 0.00 0.00 47 1012.0
20260830234516 95 353 4.0 9.0 0.00 0.00 0.00 47 1012.0
20260830233023 96 133 3.0 9.0 0.00 0.00 0.00 44 1011.9
20260830232501 96 173 3.0 9.0 0.00 0.00 0.00 44 1011.9
20260830232001 96 113 3.0 5.0 0.00 0.00 0.00 44 1011.9
20260830231516 96 110 3.0 5.0 0.00 0.00 0.00 42 1011.9
20260830231002 96 141 2.0 6.0 0.00 0.00 0.00 43 1012.0
20260830230501 96 353 2.0 6.0 0.00 0.00 0.00 42 1011.9
20260830230023 96 160 2.0 6.0 0.00 0.00 0.00 42 1011.9
20260830225502 96 24 3.0 8.0 0.00 0.00 0.00 42 1011.9
20260830225002 96 50 3.0 9.0 0.00 0.00 0.00 43 1012.0
20260830224516 97 133 2.0 5.0 0.00 0.00 0.00 41 1012.0
20260830224001 97 115 3.0 10.0 0.00 0.00 0.00 43 1012.0
20260830223021 98 150 3.0 8.0 0.00 0.00 0.00 41 1012.1
20260830222502 97 100 3.0 8.0 0.00 0.00 0.00 43 1012.1
20260830222002 98 353 2.0 6.0 0.00 0.00 0.00 42 1012.1
20260830221516 98 171 2.0 6.0 0.00 0.00 0.00 41 1012.0
20260830220026 97 67 1.0 5.0 0.00 0.00 0.00 45 1012.2
20260830215503 95 220 2.0 5.0 0.00 0.00 0.00 43 1012.2
20260830214517 96 97 3.0 8.0 0.00 0.00 0.00 43 1012.3
20260830213501 99 183 3.0 11.0 0.00 0.00 0.00 39 1012.3
20260830213028 99 55 2.0 7.0 0.00 0.00 0.00 41 1012.3
20260830212502 98 145 3.0 8.0 0.00 0.00 0.00 40 1012.4
20260830211519 99 168 3.0 8.0 0.00 0.00 0.00 42 1012.6
20260830211003 97 154 2.0 9.0 0.00 0.00 0.00 43 1012.6
20260830210502 98 353 2.0 7.0 0.00 0.00 0.00 41 1012.7
20260830210024 99 245 2.0 7.0 0.00 0.00 0.00 43 1012.8
20260830205501 99 173 2.0 7.0 0.00 0.00 0.00 41 1012.9
20260830205001 99 150 2.0 7.0 0.00 0.00 0.00 41 1012.9
20260830204516 98 77 3.0 8.0 0.00 0.00 0.00 42 1013.0
20260830204002 98 165 3.0 8.0 0.00 0.00 0.00 42 1013.1
20260830203501 97 112 3.0 6.0 0.00 0.00 0.00 43 1013.1
20260830203024 98 293 3.0 7.0 0.00 0.00 0.00 41 1013.1
20260830202501 98 195 3.0 8.0 0.00 0.00 0.00 43 1013.3
20260830201516 99 235 2.0 6.0 0.00 0.00 0.00 42 1013.4
20260830201002 100 179 2.0 5.0 0.00 0.00 0.00 43 1013.5
20260830200022 99 66 2.0 7.0 0.00 0.00 0.00 44 1013.7
20260830195501 98 336 2.0 5.0 0.00 0.00 0.00 43 1013.7
20260830195002 97 118 1.0 6.0 0.00 0.00 0.00 48 1013.9
20260830194516 96 158 1.0 5.0 0.00 0.00 0.00 47 1014.0
20260830194001 96 2 2.0 5.0 0.00 0.00 0.00 49 1014.0
20260830193500 96 173 2.0 5.0 0.00 0.00 0.00 49 1014.1
20260830193025 95 343 2.0 4.0 0.00 0.00 0.00 51 1014.3
20260830192501 96 124 1.0 4.0 0.00 0.00 0.00 49 1014.3
20260830191516 97 161 2.0 8.0 0.00 0.00 0.00 50 1014.5
20260830191002 96 241 3.0 8.0 0.00 0.00 0.00 48 1014.6
20260830190501 96 235 2.0 7.0 0.00 0.00 0.00 47 1014.7
20260830190027 96 214 2.0 7.0 0.00 0.00 0.00 49 1014.7
20260830185002 96 266 2.0 7.0 0.00 0.00 0.00 51 1014.7
20260830184515 96 270 2.0 6.0 0.00 0.00 0.00 49 1014.8
20260830184001 96 102 1.0 4.0 0.00 0.00 0.00 48 1014.9
20260830183501 96 305 2.0 5.0 0.00 0.00 0.00 48 1015.0
20260830183024 96 353 2.0 6.0 0.00 0.00 0.00 52 1015.1
20260830181516 94 178 1.0 4.0 0.00 0.00 0.00 53 1015.4
20260830180501 94 358 2.0 5.0 0.00 0.00 0.00 54 1015.6
20260830180027 92 269 2.0 5.0 0.00 0.00 0.00 53 1015.7
20260830175502 93 150 2.0 5.0 0.00 0.00 0.00 52 1015.7
20260830174002 93 202 1.0 3.0 0.00 0.00 0.00 55 1015.9
20260830173500 93 214 1.0 4.0 0.00 0.00 0.00 58 1016.0
20260830173027 93 326 2.0 4.0 0.00 0.00 0.00 55 1016.1